| time (UTC) | temp C | wind direction | speed KPH | gust KPH | rain 1hr cm | rain 24hr cm | rain mn cm | humidity % | barometer mb |
| 20260504050504 | 9 | 6 | 3.2 | 4.8 | 0.00 | 0.15 | 0.00 | 65 | 1019.8 |
| 20260504045505 | 10 | 188 | 4.8 | 6.4 | 0.00 | 0.15 | 0.00 | 67 | 1019.9 |
| 20260504045004 | 10 | 96 | 4.8 | 6.4 | 0.00 | 0.15 | 0.00 | 67 | 1019.7 |
| 20260504044504 | 9 | 108 | 3.2 | 6.4 | 0.00 | 0.15 | 0.00 | 68 | 1019.7 |
| 20260504044005 | 9 | 128 | 3.2 | 4.8 | 0.00 | 0.15 | 0.00 | 67 | 1019.6 |
| 20260504043504 | 9 | 223 | 3.2 | 4.8 | 0.00 | 0.15 | 0.00 | 66 | 1019.5 |
| 20260504043004 | 9 | 214 | 3.2 | 4.8 | 0.00 | 0.15 | 0.00 | 66 | 1019.5 |
| 20260504042505 | 9 | 188 | 1.6 | 3.2 | 0.00 | 0.15 | 0.00 | 65 | 1019.5 |
| 20260504042005 | 9 | 83 | 1.6 | 3.2 | 0.00 | 0.15 | 0.00 | 65 | 1019.5 |
| 20260504041504 | 9 | 80 | 3.2 | 3.2 | 0.00 | 0.15 | 0.00 | 65 | 1019.5 |
| 20260504041004 | 9 | 49 | 1.6 | 3.2 | 0.00 | 0.15 | 0.00 | 65 | 1019.4 |
| 20260504040005 | 8 | 359 | 3.2 | 4.8 | 0.00 | 0.15 | 0.00 | 66 | 1019.3 |
| 20260504035505 | 8 | 333 | 3.2 | 4.8 | 0.00 | 0.15 | 0.00 | 65 | 1019.3 |
| 20260504035005 | 8 | 309 | 3.2 | 4.8 | 0.00 | 0.15 | 0.00 | 65 | 1019.2 |
| 20260504034504 | 8 | 326 | 1.6 | 3.2 | 0.00 | 0.15 | 0.00 | 65 | 1019.0 |
| 20260504034005 | 8 | 342 | 3.2 | 4.8 | 0.00 | 0.15 | 0.00 | 65 | 1019.2 |
| 20260504033007 | 8 | 254 | 3.2 | 4.8 | 0.00 | 0.15 | 0.00 | 65 | 1019.0 |
| 20260504032505 | 8 | 278 | 3.2 | 4.8 | 0.00 | 0.15 | 0.00 | 65 | 1018.9 |
| 20260504031504 | 8 | 308 | 1.6 | 3.2 | 0.00 | 0.15 | 0.00 | 65 | 1019.0 |
| 20260504031005 | 8 | 270 | 0.0 | 1.6 | 0.00 | 0.15 | 0.00 | 65 | 1018.8 |
| 20260504030504 | 8 | 270 | 1.6 | 1.6 | 0.00 | 0.15 | 0.00 | 65 | 1018.9 |
| 20260504025505 | 8 | 281 | 1.6 | 4.8 | 0.00 | 0.15 | 0.00 | 65 | 1018.9 |
| 20260504025005 | 8 | 309 | 1.6 | 4.8 | 0.00 | 0.15 | 0.00 | 65 | 1019.0 |
| 20260504024504 | 8 | 351 | 1.6 | 4.8 | 0.00 | 0.15 | 0.00 | 66 | 1018.9 |
| 20260504024005 | 8 | 347 | 1.6 | 3.2 | 0.00 | 0.15 | 0.00 | 66 | 1018.9 |
| 20260504023506 | 8 | 99 | 1.6 | 3.2 | 0.00 | 0.15 | 0.00 | 66 | 1018.8 |
| 20260504023005 | 8 | 72 | 3.2 | 4.8 | 0.00 | 0.15 | 0.00 | 66 | 1018.7 |
| 20260504022504 | 8 | 67 | 3.2 | 4.8 | 0.00 | 0.15 | 0.00 | 65 | 1018.7 |
| 20260504022005 | 9 | 55 | 3.2 | 4.8 | 0.00 | 0.15 | 0.00 | 64 | 1018.7 |
| 20260504021505 | 9 | 46 | 3.2 | 4.8 | 0.00 | 0.15 | 0.00 | 63 | 1018.6 |
| 20260504021004 | 9 | 1 | 3.2 | 4.8 | 0.00 | 0.15 | 0.00 | 63 | 1018.8 |
| 20260504020505 | 9 | 250 | 3.2 | 4.8 | 0.00 | 0.15 | 0.00 | 62 | 1018.8 |
| 20260504020005 | 9 | 207 | 1.6 | 4.8 | 0.00 | 0.15 | 0.00 | 65 | 1018.6 |
| 20260504014505 | 9 | 166 | 1.6 | 1.6 | 0.00 | 0.15 | 0.00 | 65 | 1018.8 |
| 20260504013504 | 9 | 262 | 1.6 | 1.6 | 0.00 | 0.15 | 0.00 | 65 | 1018.6 |
| 20260504013005 | 9 | 310 | 1.6 | 4.8 | 0.00 | 0.15 | 0.00 | 65 | 1018.7 |
| 20260504012505 | 9 | 294 | 3.2 | 4.8 | 0.00 | 0.15 | 0.00 | 65 | 1018.7 |
| 20260504012004 | 9 | 273 | 1.6 | 4.8 | 0.00 | 0.15 | 0.00 | 66 | 1018.7 |
| 20260504011505 | 9 | 310 | 1.6 | 3.2 | 0.00 | 0.15 | 0.00 | 66 | 1018.7 |
| 20260504010005 | 8 | 142 | 3.2 | 4.8 | 0.00 | 0.15 | 0.00 | 66 | 1018.7 |
| 20260504004504 | 9 | 63 | 1.6 | 4.8 | 0.00 | 0.15 | 0.00 | 66 | 1018.7 |
| 20260504004005 | 9 | 159 | 1.6 | 3.2 | 0.00 | 0.15 | 0.00 | 66 | 1018.7 |
| 20260504003505 | 9 | 187 | 1.6 | 3.2 | 0.00 | 0.15 | 0.00 | 66 | 1018.6 |
| 20260504003005 | 9 | 106 | 1.6 | 3.2 | 0.00 | 0.15 | 0.00 | 65 | 1018.4 |
| 20260504002505 | 9 | 82 | 1.6 | 3.2 | 0.00 | 0.15 | 0.00 | 66 | 1018.3 |
| 20260504002004 | 9 | 74 | 1.6 | 1.6 | 0.00 | 0.15 | 0.00 | 66 | 1018.5 |
| 20260504001505 | 9 | 8 | 1.6 | 4.8 | 0.00 | 0.15 | 0.00 | 67 | 1018.4 |
| 20260504001005 | 9 | 33 | 1.6 | 4.8 | 0.00 | 0.15 | 0.00 | 66 | 1018.5 |
| 20260504000005 | 9 | 2 | 1.6 | 1.6 | 0.00 | 0.15 | 0.00 | 66 | 1018.7 |
| 20260503235504 | 9 | 25 | 1.6 | 1.6 | 0.00 | 0.15 | 0.00 | 66 | 1018.7 |
| 20260503235004 | 9 | 119 | 1.6 | 1.6 | 0.00 | 0.15 | 0.00 | 65 | 1018.6 |
| 20260503234505 | 9 | 224 | 1.6 | 3.2 | 0.00 | 0.15 | 0.00 | 65 | 1018.8 |
| 20260503234005 | 9 | 248 | 1.6 | 3.2 | 0.00 | 0.15 | 0.00 | 65 | 1018.8 |
| 20260503233504 | 9 | 291 | 3.2 | 3.2 | 0.00 | 0.15 | 0.00 | 65 | 1018.8 |
| 20260503233005 | 9 | 282 | 3.2 | 3.2 | 0.00 | 0.15 | 0.00 | 65 | 1018.8 |
| 20260503232505 | 9 | 253 | 3.2 | 4.8 | 0.00 | 0.15 | 0.00 | 65 | 1018.8 |
| 20260503232005 | 9 | 239 | 4.8 | 4.8 | 0.00 | 0.15 | 0.00 | 64 | 1019.0 |
| 20260503231505 | 9 | 215 | 4.8 | 8.0 | 0.00 | 0.15 | 0.00 | 64 | 1019.0 |
| 20260503231004 | 9 | 205 | 4.8 | 8.0 | 0.00 | 0.15 | 0.00 | 63 | 1019.0 |
| 20260503230510 | 10 | 222 | 3.2 | 6.4 | 0.00 | 0.15 | 0.00 | 63 | 1018.9 |
| 20260503230004 | 10 | 255 | 1.6 | 4.8 | 0.00 | 0.15 | 0.00 | 63 | 1018.9 |
| 20260503225505 | 10 | 244 | 1.6 | 4.8 | 0.00 | 0.15 | 0.00 | 63 | 1019.0 |
| 20260503225006 | 10 | 202 | 3.2 | 6.4 | 0.00 | 0.15 | 0.00 | 61 | 1019.1 |
| 20260503224504 | 10 | 218 | 3.2 | 6.4 | 0.00 | 0.15 | 0.00 | 60 | 1019.1 |
| 20260503223505 | 10 | 276 | 6.4 | 11.3 | 0.00 | 0.15 | 0.00 | 59 | 1019.1 |
| 20260503223004 | 10 | 235 | 6.4 | 11.3 | 0.00 | 0.15 | 0.00 | 60 | 1019.2 |
| 20260503222505 | 10 | 203 | 4.8 | 6.4 | 0.00 | 0.15 | 0.00 | 62 | 1019.1 |
| 20260503222005 | 10 | 321 | 4.8 | 9.7 | 0.00 | 0.15 | 0.00 | 61 | 1019.2 |
| 20260503221504 | 10 | 325 | 6.4 | 9.7 | 0.00 | 0.15 | 0.00 | 62 | 1019.1 |
| 20260503221005 | 10 | 338 | 6.4 | 9.7 | 0.00 | 0.15 | 0.00 | 63 | 1019.3 |
| 20260503220504 | 10 | 341 | 4.8 | 8.0 | 0.00 | 0.15 | 0.00 | 65 | 1019.3 |
| 20260503220009 | 10 | 242 | 3.2 | 8.0 | 0.00 | 0.15 | 0.00 | 66 | 1019.2 |
| 20260503215508 | 10 | 246 | 3.2 | 8.0 | 0.00 | 0.15 | 0.00 | 66 | 1019.2 |
| 20260503215008 | 10 | 272 | 1.6 | 3.2 | 0.00 | 0.15 | 0.00 | 67 | 1019.1 |
| 20260503214508 | 10 | 271 | 1.6 | 4.8 | 0.00 | 0.15 | 0.00 | 67 | 1019.2 |
| 20260503214007 | 9 | 263 | 3.2 | 8.0 | 0.00 | 0.15 | 0.00 | 67 | 1019.1 |
| 20260503213508 | 9 | 267 | 6.4 | 8.0 | 0.00 | 0.15 | 0.00 | 67 | 1019.0 |
| 20260503213008 | 9 | 262 | 6.4 | 8.0 | 0.00 | 0.15 | 0.00 | 67 | 1019.3 |
| 20260503212511 | 9 | 239 | 4.8 | 8.0 | 0.00 | 0.15 | 0.00 | 67 | 1019.3 |
| 20260503212008 | 9 | 245 | 6.4 | 8.0 | 0.00 | 0.15 | 0.00 | 67 | 1019.3 |
| 20260503211507 | 10 | 242 | 6.4 | 9.7 | 0.00 | 0.15 | 0.00 | 66 | 1019.3 |
| 20260503211008 | 10 | 223 | 6.4 | 9.7 | 0.00 | 0.15 | 0.00 | 66 | 1019.3 |
| 20260503210508 | 10 | 32 | 3.2 | 8.0 | 0.00 | 0.15 | 0.00 | 67 | 1019.1 |
| 20260503205508 | 10 | 271 | 3.2 | 6.4 | 0.00 | 0.15 | 0.15 | 68 | 1019.4 |
| 20260503204509 | 10 | 233 | 4.8 | 8.0 | 0.00 | 0.15 | 0.15 | 67 | 1019.4 |
| 20260503204008 | 10 | 223 | 4.8 | 9.7 | 0.00 | 0.15 | 0.15 | 67 | 1019.5 |
| 20260503203508 | 10 | 242 | 4.8 | 9.7 | 0.00 | 0.15 | 0.15 | 67 | 1019.4 |
| 20260503203008 | 10 | 298 | 3.2 | 6.4 | 0.00 | 0.15 | 0.15 | 68 | 1019.5 |
| 20260503202508 | 10 | 238 | 6.4 | 8.0 | 0.00 | 0.15 | 0.15 | 68 | 1019.5 |
| 20260503202007 | 10 | 223 | 6.4 | 9.7 | 0.00 | 0.15 | 0.15 | 67 | 1019.4 |
| 20260503201508 | 10 | 214 | 6.4 | 9.7 | 0.00 | 0.15 | 0.15 | 65 | 1019.5 |
| 20260503201008 | 11 | 218 | 4.8 | 8.0 | 0.00 | 0.15 | 0.15 | 63 | 1019.6 |
| 20260503200508 | 11 | 235 | 6.4 | 8.0 | 0.00 | 0.15 | 0.15 | 59 | 1019.4 |
| 20260503200008 | 11 | 245 | 8.0 | 11.3 | 0.00 | 0.15 | 0.15 | 59 | 1019.5 |
| 20260503195508 | 11 | 254 | 8.0 | 11.3 | 0.00 | 0.15 | 0.15 | 58 | 1019.5 |
| 20260503195008 | 11 | 275 | 8.0 | 11.3 | 0.00 | 0.15 | 0.15 | 58 | 1019.6 |
| 20260503194508 | 11 | 359 | 8.0 | 17.7 | 0.00 | 0.15 | 0.15 | 57 | 1019.4 |
| 20260503194008 | 11 | 15 | 9.7 | 17.7 | 0.00 | 0.15 | 0.15 | 57 | 1019.5 |
| 20260503193510 | 11 | 10 | 8.0 | 14.5 | 0.00 | 0.15 | 0.15 | 57 | 1019.5 |
| 20260503192508 | 11 | 1 | 8.0 | 12.9 | 0.00 | 0.15 | 0.15 | 57 | 1019.5 |
| 20260503192008 | 12 | 2 | 11.3 | 14.5 | 0.00 | 0.15 | 0.15 | 56 | 1019.5 |
| 20260503191507 | 12 | 14 | 9.7 | 14.5 | 0.00 | 0.15 | 0.15 | 56 | 1019.5 |
| 20260503191008 | 12 | 10 | 9.7 | 14.5 | 0.00 | 0.15 | 0.15 | 54 | 1019.5 |
| 20260503190008 | 12 | 328 | 14.5 | 17.7 | 0.00 | 0.15 | 0.15 | 54 | 1019.5 |
| 20260503185008 | 12 | 353 | 12.9 | 17.7 | 0.00 | 0.15 | 0.15 | 57 | 1019.2 |
| 20260503184508 | 12 | 2 | 12.9 | 14.5 | 0.00 | 0.15 | 0.15 | 57 | 1019.4 |
| 20260503184013 | 12 | 7 | 9.7 | 14.5 | 0.00 | 0.15 | 0.15 | 57 | 1019.3 |
| 20260503183508 | 12 | 4 | 9.7 | 12.9 | 0.00 | 0.15 | 0.15 | 57 | 1019.5 |
| 20260503183008 | 12 | 357 | 11.3 | 17.7 | 0.00 | 0.15 | 0.15 | 57 | 1019.2 |
| 20260503182507 | 12 | 6 | 14.5 | 17.7 | 0.00 | 0.15 | 0.15 | 55 | 1019.4 |
| 20260503181508 | 12 | 23 | 9.7 | 12.9 | 0.00 | 0.15 | 0.15 | 54 | 1019.0 |
| 20260503181008 | 13 | 353 | 8.0 | 11.3 | 0.00 | 0.15 | 0.15 | 52 | 1019.0 |
| 20260503180508 | 13 | 326 | 8.0 | 9.7 | 0.00 | 0.15 | 0.15 | 50 | 1019.1 |
| 20260503180008 | 13 | 323 | 8.0 | 9.7 | 0.00 | 0.15 | 0.15 | 50 | 1019.0 |
| 20260503175508 | 13 | 299 | 8.0 | 11.3 | 0.00 | 0.15 | 0.15 | 51 | 1019.0 |
| 20260503175008 | 13 | 290 | 6.4 | 11.3 | 0.00 | 0.15 | 0.15 | 51 | 1018.8 |
| 20260503173508 | 13 | 289 | 3.2 | 4.8 | 0.00 | 0.15 | 0.15 | 51 | 1018.7 |
| 20260503173008 | 13 | 297 | 4.8 | 6.4 | 0.00 | 0.15 | 0.15 | 51 | 1018.7 |
| 20260503172008 | 13 | 316 | 3.2 | 6.4 | 0.00 | 0.15 | 0.15 | 49 | 1018.6 |
| 20260503171508 | 14 | 276 | 3.2 | 4.8 | 0.00 | 0.15 | 0.15 | 48 | 1018.4 |
| 20260503171007 | 14 | 271 | 4.8 | 6.4 | 0.00 | 0.15 | 0.15 | 47 | 1018.4 |
| 20260503170508 | 14 | 278 | 6.4 | 8.0 | 0.00 | 0.15 | 0.15 | 47 | 1018.4 |
| 20260503150507 | 14 | 257 | 12.9 | 19.3 | 0.00 | 0.15 | 0.15 | 48 | 1018.2 |
| 20260503131007 | 13 | 267 | 20.9 | 24.1 | 0.00 | 0.15 | 0.15 | 55 | 1018.8 |
| 20260503130508 | 13 | 281 | 22.5 | 25.7 | 0.00 | 0.15 | 0.15 | 55 | 1018.8 |
| 20260503110509 | 10 | 226 | 14.5 | 14.5 | 0.10 | 0.18 | 0.15 | 84 | 1020.1 |
| 20260503090507 | 10 | 104 | 11.3 | 17.7 | 0.00 | 0.03 | 0.00 | 74 | 1019.4 |
| 20260503081508 | 11 | 106 | 9.7 | 16.1 | 0.00 | 0.03 | 0.00 | 78 | 1018.9 |
| 20260503081008 | 11 | 119 | 9.7 | 16.1 | 0.00 | 0.03 | 0.00 | 78 | 1018.6 |
| 20260503080507 | 11 | 95 | 8.0 | 14.5 | 0.00 | 0.03 | 0.00 | 80 | 1018.8 |
| 20260503072007 | 12 | 121 | 3.2 | 4.8 | 0.00 | 0.03 | 0.00 | 76 | 1018.2 |
| 20260503071508 | 12 | 102 | 3.2 | 4.8 | 0.00 | 0.03 | 0.00 | 76 | 1017.8 |
| 20260503071008 | 11 | 90 | 3.2 | 4.8 | 0.00 | 0.03 | 0.00 | 75 | 1017.7 |
| 20260503070508 | 12 | 75 | 3.2 | 4.8 | 0.00 | 0.03 | 0.00 | 75 | 1017.8 |
| 20260503054508 | 11 | 89 | 4.8 | 8.0 | 0.00 | 0.30 | 0.00 | 77 | 1017.7 |
| 20260503054007 | 11 | 95 | 4.8 | 8.0 | 0.00 | 0.30 | 0.00 | 77 | 1017.6 |
| 20260503053508 | 11 | 105 | 4.8 | 6.4 | 0.00 | 0.30 | 0.00 | 77 | 1017.6 |
| 20260503053009 | 10 | 114 | 4.8 | 6.4 | 0.00 | 0.30 | 0.00 | 77 | 1017.6 |
| 20260503052508 | 10 | 62 | 6.4 | 8.0 | 0.00 | 0.30 | 0.00 | 77 | 1017.7 |
| 20260503052009 | 10 | 59 | 4.8 | 8.0 | 0.00 | 0.30 | 0.00 | 76 | 1017.7 |